Regional Weather Roundup
Issued by NWS

Home | Current Version | Previous Version | Text Only | Print | Product List | Glossary Off
Versions: 1 2 3 4 5 6 7 8 9 10 11 12 13 14 15 16 17 18 19 20 21 22 23 24 25 26 27 28 29 30 31 32 33 34 35 36 37 38 39 40 41 42 43 44 45 46 47 48 49 50

000
ASUS45 KSLC 022210
RWRUT

UTAH REGIONAL WEATHER ROUNDUP
NATIONAL WEATHER SERVICE SALT LAKE CITY UT
400 PM MDT MON MAY 02 2016

UTZ001>011-023>025-022300-

NORTHERN UTAH

CITY           SKY/WX    TMP DP  RH WIND       PRES   REMARKS
BRIGHAM CITY   SUNNY     66  26  22 SW5       30.18F
HILL AFB       MOSUNNY   64  29  27 VRB7      30.18F
LOGAN          SUNNY     65  29  25 N6        30.17F
OGDEN          SUNNY     65  29  25 W8        30.17F
PROVO AIRPORT  MOSUNNY   66  36  32 VRB6      30.16F
SALT LAKE CITY MOSUNNY   67  30  25 N6        30.15F
VERNAL         SUNNY     62  26  25 E7        30.16F
WENDOVER       SUNNY     63  34  34 SE7       30.18F
HEBER CITY     MOSUNNY   63  28  27 W6        30.17S

$$

UTZ012>022-026-027-022300-

SOUTHERN/CENTRAL UTAH

CITY           SKY/WX    TMP DP  RH WIND       PRES   REMARKS
BLANDING       MOSUNNY   56  35  44 S3        30.26F
BRYCE CANYON   PTSUNNY   50  34  54 SE12G17   30.25S
CEDAR CITY     TSTM      52  39  61 SE13      30.17R
DELTA          SUNNY     64  28  25 N3        30.15F
HANKSVILLE     PTSUNNY   63  32  31 NW3       30.17F
MILFORD        PTSUNNY   64  31  28 E8        30.15F
MOAB/CYNLANDS  MOSUNNY   64  34  32 N3        30.13F
PRICE          CLOUDY    58  34  40 VRB3      30.18F
ST GEORGE      PTCLDY    72  39  30 NE13      30.09F
KANAB          MOSUNNY   64  32  29 NE13      30.17F

$$

REGIONAL REPORTS     COLORADO/ARIZONA

CITY           SKY/WX    TMP DP  RH WIND       PRES   REMARKS
CRAIG, CO      SUNNY     60  25  26 W10G18    30.19F
GRAND JUNCTION MOSUNNY   63  31  30 N6        30.13F
RIFLE          PTSUNNY   62  28  27 SW5       30.13F
MONTROSE       MOSUNNY   60  28  29 CALM      30.17F
CORTEZ         MOSUNNY   59  35  40 SW14      30.18F
PAGE, AZ       MOSUNNY   65  36  34 E7        30.15F
GRAND CANYON   PTSUNNY   54  31  41 CALM      30.20F
KINGMAN        PTSUNNY   72  36  26 SE21      30.07F
FLAGSTAFF      LGT RAIN  48  37  65 W10       30.19F

$$

REGIONAL REPORTS    NEVADA/IDAHO/WYOMING

CITY           SKY/WX    TMP DP  RH WIND       PRES   REMARKS
LAS VEGAS, NV  MOSUNNY   79  33  19 CALM      29.99F
ELY            MOSUNNY   57  26  30 W3        30.19F
ELKO           PTSUNNY   65  32  29 MISG      30.16F
POCATELLO, ID  MOSUNNY   65  25  22 W10       30.19F
BURLEY         SUNNY     66  33  29 VRB3      30.15F
EVANSTON, WY   SUNNY     55  19  24 SE3       30.23F
ROCK SPRINGS   SUNNY     53  14  21 VRB6      30.23F
KEMMERER         N/A     55   9  15 NE5       30.24F

$$



USA.gov is the U.S. government's official web portal to all federal, state and local government web resources and services.